Weather History for Brest, France

Change the Weather History Date:

Wednesday, December 5, 2012

  Actual Average Record
Temperature  
Mean Temperature 39 °F -  
Max Temperature 48 °F 48 °F 60 °F (2000)
Min Temperature 30 °F 39 °F 30 °F (2012)
Degree Days  
Heating Degree Days 26    
Moisture  
Dew Point 37 °F    
Average Humidity 79    
Maximum Humidity 93    
Minimum Humidity 65    
Precipitation  
Precipitation 0.08 in 0.18 in - ()
Sea Level Pressure  
Sea Level Pressure 29.88 in    
Wind  
Wind Speed 11 mph ()    
Max Wind Speed 21 mph    
Max Gust Speed 30 mph    
Visibility 6.7 miles    
Events Rain    
Averages and records for this station are not official NWS values.
T = Trace of Precipitation, MM = Missing Value Source: Averaged Metar Reports

Daily Weather History Graph

Daily Weather History Graph

Search for Another Location

Airport:

Trip Planner

Search our weather history database for the weather conditions in past years. The results will help you decide how hot, cold, wet, or windy it might be!

Date:

Astronomy

Dec. 05, 2012 Rise Set
Actual Time 8:53 AM CET 5:23 PM CET
Civil Twilight 8:17 AM CET 5:59 PM CET
Nautical Twilight 7:37 AM CET 6:39 PM CET
Astronomical Twilight 6:59 AM CET 7:17 PM CET
Moon No Moon Rise 12:49 PM CET (12/5)
Length of Visible Light 9h 42m
Length of Day
8h 30m
Waning Gibbous, 62% of the Moon is Illuminated
Dec 5
Waning Gibbous
Dec 6
Last Quarter
Dec 13
New
Dec 20
First Quarter
Dec 28
Full

Hourly Weather History & Observations

Time (CET) Temp. Windchill Dew Point Humidity Pressure Visibility Wind Dir Wind Speed Gust Speed Precip Events Conditions
12:00 AM 41.0 °F 32.5 °F 39.2 °F 93% 29.77 in 3.1 mi WNW 17.3 mph - N/A Rain Rain Showers
12:30 AM 42.8 °F 36.6 °F 39.2 °F 87% 29.74 in 6.2 mi West 11.5 mph - N/A Rain Light Rain Showers
1:00 AM 44 °F - 40 °F 80% 29.77 in 16 mi WNW 11.5 mph - - Rain Light Rain Showers
1:00 AM 42.8 °F 36.6 °F 39.2 °F 87% 29.74 in 6.2 mi WNW 11.5 mph - N/A   Scattered Clouds
1:30 AM 44.6 °F 38.4 °F 41.0 °F 87% 29.74 in 6.2 mi WNW 12.7 mph - N/A Rain Rain Showers
2:00 AM 44.6 °F 38.1 °F 39.2 °F 81% 29.74 in 6.2 mi WNW 13.8 mph - N/A   Mostly Cloudy
2:30 AM 44.6 °F 36.9 °F 39.2 °F 81% 29.74 in 6.2 mi NW 18.4 mph - N/A   Mostly Cloudy
3:00 AM 46.4 °F 40.1 °F 37.4 °F 71% 29.74 in 6.2 mi NW 15.0 mph - N/A   Partly Cloudy
3:24 AM 44.6 °F 38.4 °F 37.4 °F 76% 29.74 in 6.2 mi NW 12.7 mph - N/A   Partly Cloudy
4:00 AM 44.6 °F 38.4 °F 39.2 °F 81% 29.74 in 6.2 mi WNW 12.7 mph - N/A   Scattered Clouds
4:30 AM 42.8 °F 34.0 °F 37.4 °F 81% 29.74 in 6.2 mi NW 20.7 mph - N/A   Scattered Clouds
5:00 AM 44.6 °F 38.4 °F 39.2 °F 81% 29.74 in 6.2 mi NW 12.7 mph 29.9 mph N/A   Scattered Clouds
5:30 AM 44.6 °F 38.8 °F 39.2 °F 81% 29.74 in 6.2 mi NW 11.5 mph - N/A   Scattered Clouds
6:00 AM 44.6 °F 38.8 °F 39.2 °F 81% 29.74 in 6.2 mi NW 11.5 mph - N/A   Scattered Clouds
6:30 AM 44.6 °F 38.4 °F 39.2 °F 81% 29.74 in 6.2 mi NNW 12.7 mph - N/A   Mostly Cloudy
7:00 AM 44 °F - 39 °F 77% 29.79 in 12 mi NW 10.4 mph - - Rain Light Rain Showers
7:00 AM 44.6 °F 39.2 °F 39.2 °F 81% 29.77 in 6.2 mi NW 10.4 mph - N/A   Scattered Clouds
7:30 AM 44.6 °F 38.4 °F 39.2 °F 81% 29.77 in 6.2 mi NW 12.7 mph - N/A   Scattered Clouds
8:00 AM 44.6 °F 38.1 °F 39.2 °F 81% 29.80 in 6.2 mi NNW 13.8 mph - N/A   Scattered Clouds
8:30 AM 44.6 °F 38.4 °F 41.0 °F 87% 29.80 in 6.2 mi NNW 12.7 mph - N/A   Partly Cloudy
9:00 AM 44.6 °F 38.8 °F 37.4 °F 76% 29.83 in 6.2 mi NW 11.5 mph - N/A   Partly Cloudy
9:30 AM 44.6 °F 38.1 °F 39.2 °F 81% 29.83 in 6.2 mi NW 13.8 mph - N/A   Scattered Clouds
10:00 AM 44.6 °F 38.8 °F 39.2 °F 81% 29.86 in 6.2 mi NNW 11.5 mph - N/A   Scattered Clouds
10:30 AM 44.6 °F 38.1 °F 39.2 °F 81% 29.86 in 6.2 mi NNW 13.8 mph - N/A   Partly Cloudy
11:00 AM 46.4 °F 40.7 °F 41.0 °F 81% 29.86 in 6.2 mi NNW 12.7 mph - N/A   Scattered Clouds
11:30 AM 48.2 °F - 37.4 °F 66% 29.89 in 6.2 mi NNW 15.0 mph - N/A   Partly Cloudy
12:00 PM 48.2 °F - 39.2 °F 71% 29.89 in 6.2 mi NNW 12.7 mph - N/A   Partly Cloudy
12:30 PM 46.4 °F 39.8 °F 39.2 °F 76% 29.89 in 6.2 mi North 16.1 mph - N/A   Scattered Clouds
1:00 PM 46 °F - 39 °F 68% 29.91 in 9 mi NW 15.0 mph - -   Partly Cloudy
1:00 PM 46.4 °F 40.1 °F 39.2 °F 76% 29.89 in 6.2 mi NW 15.0 mph - N/A   Scattered Clouds
1:30 PM 46.4 °F 39.2 °F 37.4 °F 71% 29.89 in 6.2 mi NNW 18.4 mph - N/A   Scattered Clouds
2:00 PM 44.6 °F 36.9 °F 39.2 °F 81% 29.92 in 6.2 mi NW 18.4 mph - N/A   Scattered Clouds
4:00 PM 44.6 °F 38.4 °F 35.6 °F 71% 29.95 in 6.2 mi North 12.7 mph - N/A   Scattered Clouds
4:30 PM 44.6 °F 39.2 °F 35.6 °F 71% 29.95 in 6.2 mi North 10.4 mph - N/A   Partly Cloudy
5:00 PM 42.8 °F 37.5 °F 33.8 °F 70% 29.98 in 6.2 mi North 9.2 mph - N/A   Partly Cloudy
5:30 PM 42.8 °F 38.0 °F 33.8 °F 70% 29.98 in 6.2 mi North 8.1 mph - N/A   Partly Cloudy
6:00 PM 41.0 °F 37.1 °F 33.8 °F 76% 29.98 in 6.2 mi North 5.8 mph - N/A   Partly Cloudy
6:30 PM 41.0 °F 39.0 °F 33.8 °F 76% 30.01 in 6.2 mi North 3.5 mph - N/A   Partly Cloudy
7:00 PM 40 °F - 32 °F 65% 30.04 in 12 mi North 4.6 mph - -   Partly Cloudy
7:00 PM 39.2 °F 35.9 °F 32.0 °F 75% 30.01 in 6.2 mi North 4.6 mph - N/A   Partly Cloudy
7:30 PM 37.4 °F 34.9 °F 32.0 °F 81% 30.04 in 6.2 mi North 3.5 mph - N/A   Partly Cloudy
8:30 PM 37.4 °F 33.8 °F 32.0 °F 81% 30.06 in 6.2 mi NNW 4.6 mph - N/A   Partly Cloudy
9:00 PM 37.4 °F 33.8 °F 30.2 °F 75% 30.06 in - NNW 4.6 mph - N/A   Clear
9:30 PM 33.8 °F 30.8 °F 30.2 °F 87% 30.06 in - WNW 3.5 mph - N/A   Clear
10:00 PM 33.8 °F - 30.2 °F 87% 30.06 in - WNW 2.3 mph - N/A   Clear
10:30 PM 32.0 °F - 30.2 °F 93% 30.09 in - WNW 2.3 mph - N/A   Clear
11:00 PM 30.2 °F 26.7 °F 28.4 °F 93% 30.09 in - WSW 3.5 mph - N/A   Clear
11:30 PM 30.2 °F 26.7 °F 28.4 °F 93% 30.09 in - West 3.5 mph - N/A   Clear